Home > Weather > Kingstown > Past weeks

Flag for Saint Vincent and Grenadines Past Weather in Kingstown, Saint Vincent and Grenadines — Yesterday and Last 2 Weeks

Now
82 °F

Passing clouds.


Feels Like: 92 °F
Forecast: 81 / 86 °F
Wind: 18 mph from East

Location: Arnos Vale

Current Time: Jul 2, 2016 at 3:36:22 AM

Latest Report: Jul 2, 2016 at 12:00 AM


Visibility: N/A

Pressure: 30.04 "Hg

Humidity: 89%

Dew Point: 79 °F

Location of KingstownLocation

Past Weather in Kingstown — Graph

°F

Kingstown Temperature Yesterday

Maximum temperature yesterday: 88 °F (at 10:00 AM)
Minimum temperature yesterday: 79 °F (at 3:00 PM)
Average temperature yesterday: 83 °F

High & Low Weather Summary for the Past Weeks

 TemperatureHumidityPressure
High99 °F (Jun 28, 6:00 PM)94% (Jun 19, 1:00 PM)30.09 "Hg (Jun 19, 1:00 PM)
Low75 °F (Jun 30, 8:00 AM)47% (Jun 28, 6:00 PM)29.95 "Hg (Jun 19, 3:00 PM)
Average84 °F77%30.02 "Hg
* Reported Jun 17 6:00 AM — Jul 2 12:00 AM, Kingstown, Weather by CustomWeather, © 2016

Note: Actual official high and low records may vary slightly from our data, if they occured in-between our weather recording intervals... More about our weather records

Advertising

Kingstown Weather History for the Previous 24 Hours

Scroll right to see more
 ConditionsComfort  
Time TempWeatherWind HumidityBarometerVisibility
12:00 AM
Sat, Jul 2
82 °FPassing clouds.18 mph89%30.04 "HgN/A
11:00 PM
Fri, Jul 1
82 °FPassing clouds.16 mph89%30.04 "HgN/A
10:00 PM82 °FPassing clouds.15 mph84%30.04 "HgN/A
9:00 PM82 °FSprinkles. Partly cloudy.12 mph89%30.01 "HgN/A
8:00 PM82 °FPassing clouds.12 mph89%30.01 "HgN/A
7:00 PM81 °FPartly cloudy.6 mph89%30.01 "HgN/A
6:00 PM81 °FMostly cloudy.10 mph89%29.98 "HgN/A
5:00 PM79 °FRain. More clouds than sun.7 mph94%29.98 "Hg1 mi
4:00 PM81 °FLight rain. Partly sunny.10 mph89%30.01 "HgN/A
3:00 PM79 °FSprinkles. Partly sunny.No wind94%30.01 "HgN/A
2:00 PM88 °FPartly sunny.12 mph70%30.01 "HgN/A
1:00 PM86 °FSprinkles. Partly sunny.12 mph75%30.01 "HgN/A
12:00 PM88 °FPartly sunny.16 mph70%30.04 "HgN/A
11:00 AM88 °FScattered clouds.16 mph70%30.04 "HgN/A
10:00 AM88 °FScattered clouds.16 mph70%30.04 "HgN/A
9:00 AM84 °FScattered clouds.14 mph79%30.07 "HgN/A
8:00 AM84 °FScattered clouds.10 mph79%30.04 "HgN/A
7:00 AM81 °FSprinkles. Scattered clouds.9 mph84%30.01 "HgN/A
6:00 AM81 °FScattered clouds.9 mph84%30.01 "HgN/A
Weather by CustomWeather, © 2016

See weather overviewHow to use our weather pages